Harrisburg, IL

2:32 PM CDT on July 26, 2017 (GMT -0500)
Harrisburg-Raleigh

Weather History for KHSB - February, 2013

Change the Weather History Date:

Saturday, February 9, 2013

  Actual Average (KMWA) Record (KMWA)
Temperature  
Mean Temperature 38 °F -  
Max Temperature 44 °F 34 °F 69 °F (2009)
Min Temperature 32 °F 16 °F -8 °F (1979)
Degree Days  
Heating Degree Days 27    
Moisture  
Dew Point 30 °F    
Average Humidity 76    
Maximum Humidity 87    
Minimum Humidity 61    
Precipitation  
Precipitation 0.01 in - - ()
Sea Level Pressure  
Sea Level Pressure 30.27 in    
Wind  
Wind Speed 7 mph (East)    
Max Wind Speed 13 mph    
Max Gust Speed -    
Visibility 10 miles    
Events Rain    
Averages and records for this station are not official NWS values.
T = Trace of Precipitation, MM = Missing Value Source: NWS Daily Summary

Daily Weather History Graph

Daily Weather History Graph

Search for Another Location

Airport or City:

Trip Planner

Search our weather history database for the weather conditions in past years. The results will help you decide how hot, cold, wet, or windy it might be!

Date:

Astronomy

Feb. 09, 2013 Rise Set
Actual Time 6:50 AM CST 5:27 PM CST
Civil Twilight 6:23 AM CST 5:54 PM CST
Nautical Twilight 5:52 AM CST 6:25 PM CST
Astronomical Twilight 5:21 AM CST 6:55 PM CST
Moon 6:02 AM CST (2/9) 5:08 PM CST (2/9)
Length of Visible Light 11h 31m
Length of Day
10h 36m
Waning Crescent, 0% of the Moon is Illuminated
Feb 9
Waning Crescent
Feb 10
New
Feb 17
First Quarter
Feb 25
Full
Mar 4
Last Quarter

Hourly Weather History & Observations

Time (CST) Temp. Windchill Dew Point Humidity Pressure Visibility Wind Dir Wind Speed Gust Speed Precip Events Conditions
12:15 AM 32.0 °F 26.4 °F 28.4 °F 87% 30.36 in 10.0 mi ENE 5.8 mph - N/A   Overcast
12:35 AM 32.0 °F 28.7 °F 28.4 °F 87% 30.37 in 10.0 mi NE 3.5 mph - N/A   Overcast
12:55 AM 32.0 °F 27.5 °F 28.4 °F 87% 30.37 in 10.0 mi East 4.6 mph - N/A   Overcast
1:15 AM 32.0 °F 26.4 °F 28.4 °F 87% 30.37 in 10.0 mi ENE 5.8 mph - N/A   Overcast
1:35 AM 32.0 °F 24.8 °F 28.4 °F 87% 30.36 in 10.0 mi East 8.1 mph - N/A   Overcast
1:55 AM 32.0 °F 24.8 °F 28.4 °F 87% 30.36 in 10.0 mi East 8.1 mph - N/A   Overcast
2:15 AM 32.0 °F 25.6 °F 28.4 °F 87% 30.36 in 10.0 mi East 6.9 mph - N/A   Overcast
2:35 AM 32.0 °F 24.8 °F 26.6 °F 80% 30.36 in 10.0 mi East 8.1 mph - N/A   Overcast
2:55 AM 32.0 °F 24.2 °F 28.4 °F 87% 30.36 in 10.0 mi ENE 9.2 mph - N/A   Overcast
3:15 AM 32.0 °F 24.2 °F 28.4 °F 87% 30.36 in 10.0 mi East 9.2 mph - N/A   Overcast
3:35 AM 32.0 °F 25.6 °F 28.4 °F 87% 30.36 in 10.0 mi East 6.9 mph - N/A   Overcast
3:55 AM 32.0 °F 24.2 °F 28.4 °F 87% 30.37 in 10.0 mi ESE 9.2 mph - N/A   Overcast
4:15 AM 32.0 °F 24.2 °F 28.4 °F 87% 30.37 in 10.0 mi East 9.2 mph - N/A   Overcast
4:35 AM 32.0 °F 24.2 °F 28.4 °F 87% 30.38 in 10.0 mi East 9.2 mph - N/A   Overcast
4:55 AM 32.0 °F 26.4 °F 28.4 °F 87% 30.38 in 10.0 mi ESE 5.8 mph - N/A   Overcast
5:15 AM 32.0 °F 26.4 °F 28.4 °F 87% 30.38 in 10.0 mi East 5.8 mph - N/A   Overcast
5:35 AM 32.0 °F 25.6 °F 28.4 °F 87% 30.38 in 10.0 mi East 6.9 mph - N/A   Overcast
5:55 AM 32.0 °F 26.4 °F 28.4 °F 87% 30.38 in 10.0 mi ESE 5.8 mph - N/A   Overcast
6:15 AM 32.0 °F 26.4 °F 28.4 °F 87% 30.37 in 10.0 mi East 5.8 mph - N/A   Mostly Cloudy
6:35 AM 32.0 °F 28.7 °F 28.4 °F 87% 30.37 in 10.0 mi East 3.5 mph - N/A   Scattered Clouds
6:55 AM 32.0 °F 26.4 °F 28.4 °F 87% 30.37 in 10.0 mi East 5.8 mph - N/A   Mostly Cloudy
7:15 AM 32.0 °F 25.6 °F 28.4 °F 87% 30.37 in 10.0 mi East 6.9 mph - N/A   Overcast
7:35 AM 32.0 °F 24.8 °F 28.4 °F 87% 30.38 in 10.0 mi ESE 8.1 mph - N/A   Overcast
7:55 AM 32.0 °F 23.0 °F 28.4 °F 87% 30.37 in 10.0 mi ESE 11.5 mph - N/A   Overcast
8:15 AM 32.0 °F 22.5 °F 28.4 °F 87% 30.37 in 10.0 mi ESE 12.7 mph - N/A   Overcast
8:35 AM 32.0 °F 23.0 °F 28.4 °F 87% 30.38 in 10.0 mi ESE 11.5 mph - N/A   Overcast
8:55 AM 33.8 °F 24.8 °F 28.4 °F 81% 30.38 in 10.0 mi SE 12.7 mph - N/A   Overcast
9:15 AM 33.8 °F 26.4 °F 28.4 °F 81% 30.38 in 10.0 mi ESE 9.2 mph - N/A   Mostly Cloudy
9:35 AM 33.8 °F 25.8 °F 28.4 °F 81% 30.37 in 10.0 mi ESE 10.4 mph - N/A   Mostly Cloudy
9:55 AM 35.6 °F 28.0 °F 28.4 °F 75% 30.37 in 10.0 mi SE 10.4 mph - N/A   Mostly Cloudy
10:15 AM 35.6 °F 28.0 °F 28.4 °F 75% 30.37 in 10.0 mi SE 10.4 mph - N/A   Scattered Clouds
10:35 AM 35.6 °F 28.6 °F 28.4 °F 75% 30.36 in 10.0 mi ESE 9.2 mph - N/A   Scattered Clouds
10:55 AM 37.4 °F 30.8 °F 30.2 °F 75% 30.35 in 10.0 mi East 9.2 mph - N/A   Clear
11:15 AM 37.4 °F 30.8 °F 30.2 °F 75% 30.34 in 10.0 mi East 9.2 mph - N/A   Clear
11:35 AM 37.4 °F 31.4 °F 30.2 °F 75% 30.33 in 10.0 mi East 8.1 mph - N/A   Clear
11:55 AM 39.2 °F 35.0 °F 30.2 °F 70% 30.32 in 10.0 mi ESE 5.8 mph - N/A   Clear
12:15 PM 41.0 °F 35.8 °F 30.2 °F 65% 30.30 in 10.0 mi ESE 8.1 mph - N/A   Clear
12:35 PM 41.0 °F 36.4 °F 30.2 °F 65% 30.29 in 10.0 mi East 6.9 mph - N/A   Clear
12:55 PM 41.0 °F 37.1 °F 30.2 °F 65% 30.28 in 10.0 mi East 5.8 mph - N/A   Clear
1:15 PM 42.8 °F 38.6 °F 32.0 °F 66% 30.27 in 10.0 mi SE 6.9 mph - N/A   Clear
1:35 PM 42.8 °F 39.3 °F 32.0 °F 66% 30.26 in 10.0 mi ESE 5.8 mph - N/A   Clear
1:55 PM 42.8 °F - 32.0 °F 66% 30.26 in 10.0 mi Calm Calm - N/A   Clear
2:15 PM 44.6 °F 41.4 °F 32.0 °F 61% 30.25 in 10.0 mi ENE 5.8 mph - N/A   Clear
2:35 PM 44.6 °F 40.7 °F 32.0 °F 61% 30.23 in 10.0 mi ESE 6.9 mph - N/A   Clear
2:55 PM 44.6 °F 40.2 °F 32.0 °F 61% 30.23 in 10.0 mi East 8.1 mph - N/A   Clear
3:15 PM 44.6 °F 39.7 °F 32.0 °F 61% 30.23 in 10.0 mi East 9.2 mph - N/A   Clear
3:35 PM 44.6 °F 40.2 °F 32.0 °F 61% 30.22 in 10.0 mi East 8.1 mph - N/A   Clear
3:55 PM 44.6 °F 39.2 °F 32.0 °F 61% 30.20 in 10.0 mi East 10.4 mph - N/A   Clear
4:15 PM 44.6 °F 38.4 °F 32.0 °F 61% 30.20 in 10.0 mi East 12.7 mph - N/A   Clear
4:35 PM 44.6 °F 39.2 °F 32.0 °F 61% 30.19 in 10.0 mi East 10.4 mph - N/A   Clear
4:55 PM 42.8 °F 37.5 °F 32.0 °F 66% 30.18 in 10.0 mi East 9.2 mph - N/A   Clear
5:15 PM 42.8 °F 38.0 °F 32.0 °F 66% 30.18 in 10.0 mi ESE 8.1 mph - N/A   Clear
5:35 PM 41.0 °F 35.8 °F 32.0 °F 70% 30.18 in 10.0 mi East 8.1 mph - N/A   Clear
5:55 PM 41.0 °F 35.8 °F 32.0 °F 70% 30.17 in 10.0 mi East 8.1 mph - N/A   Clear
6:15 PM 41.0 °F 35.2 °F 32.0 °F 70% 30.16 in 10.0 mi East 9.2 mph - N/A   Clear
6:35 PM 41.0 °F 35.2 °F 32.0 °F 70% 30.15 in 10.0 mi East 9.2 mph - N/A   Clear
6:55 PM 41.0 °F 35.2 °F 32.0 °F 70% 30.15 in 10.0 mi East 9.2 mph - N/A   Clear
7:15 PM 41.0 °F 35.8 °F 32.0 °F 70% 30.15 in 10.0 mi East 8.1 mph - N/A   Clear
7:35 PM 41.0 °F 35.8 °F 32.0 °F 70% 30.15 in 10.0 mi ESE 8.1 mph - N/A   Clear
7:55 PM 41.0 °F 35.8 °F 32.0 °F 70% 30.14 in 10.0 mi East 8.1 mph - N/A   Clear
8:15 PM 41.0 °F 37.1 °F 32.0 °F 70% 30.15 in 10.0 mi East 5.8 mph - N/A   Clear
8:35 PM 41.0 °F 35.8 °F 32.0 °F 70% 30.14 in 10.0 mi East 8.1 mph - N/A   Clear
8:55 PM 41.0 °F 37.1 °F 32.0 °F 70% 30.14 in 10.0 mi East 5.8 mph - N/A   Clear
9:15 PM 41.0 °F 39.0 °F 32.0 °F 70% 30.13 in 10.0 mi ESE 3.5 mph - N/A   Clear
9:35 PM 41.0 °F 39.0 °F 32.0 °F 70% 30.12 in 10.0 mi East 3.5 mph - N/A   Clear
9:55 PM 41.0 °F 39.0 °F 32.0 °F 70% 30.12 in 10.0 mi ESE 3.5 mph - N/A   Scattered Clouds
10:15 PM 41.0 °F 38.0 °F 32.0 °F 70% 30.11 in 10.0 mi East 4.6 mph - N/A   Scattered Clouds
10:35 PM 41.0 °F - 32.0 °F 70% 30.11 in 10.0 mi Calm Calm - N/A Rain Light Rain
10:55 PM 41.0 °F 39.0 °F 33.8 °F 76% 30.11 in 10.0 mi East 3.5 mph - N/A   Light Drizzle
11:15 PM 41.0 °F 39.0 °F 33.8 °F 76% 30.11 in 10.0 mi ENE 3.5 mph - N/A   Light Drizzle
11:35 PM 41.0 °F 37.1 °F 33.8 °F 76% 30.10 in 10.0 mi ENE 5.8 mph - 0.01 in Rain Light Rain
11:55 PM 41.0 °F 38.0 °F 33.8 °F 76% 30.09 in 10.0 mi ENE 4.6 mph - 0.01 in   Mostly Cloudy